Regional Weather Roundup
Issued by NWS

Home | Current Version | Previous Version | Text Only | Print | Product List | Glossary On
Versions: 1 2 3 4 5 6 7 8 9 10 11 12 13 14 15 16 17 18 19 20 21 22 23 24 25 26 27 28 29 30 31 32 33 34 35 36 37 38 39 40 41 42 43 44 45 46 47 48 49 50
000
ASUS42 KFFC 211703
RWRGA
WEATHER ROUNDUP FOR GEORGIA
NATIONAL WEATHER SERVICE PEACHTREE CITY GA
100 PM EDT TUE OCT 21 2014

NOTE: "FAIR" INDICATES FEW OR NO CLOUDS BELOW 12,000 FEET WITH NO
SIGNIFICANT WEATHER AND/OR OBSTRUCTIONS TO VISIBILITY.

* = USE WITH CAUTION. THE STATIONS MARKED WITH AN ASTERISK MAY NOT
REPORT WEATHER SUCH AS PRECIPITATION, FOG, OR THUNDER AND ARE NOT
QUALITY CONTROLLED BY NWS.

THE REMARK "TC" DENOTES TEMPERATURE READING IN DEGREES CELSIUS.

GAZ001>058-211800-
NORTH GEORGIA

CITY           SKY/WX    TMP DP  RH WIND       PRES   REMARKS
ATLANTA        MOSUNNY   72  53  51 W10       30.02F
ATHENS         SUNNY     74  52  46 NW13G18   29.98F
CHAMBLEE       SUNNY     72  53  51 W9        30.02F
PEACHTREE CITY SUNNY     72  52  49 NW7       30.03F
ROME           SUNNY     71  54  54 NW6       30.02F
WEST ATLANTA   SUNNY     71  53  52 NW10      30.02F
GAINESVILLE    SUNNY     69  53  56 NW10      30.01F
CARTERSVILLE   SUNNY     70  54  56 VRB3      30.03F


CITY           SKY/WX    TMP DP  RH WIND       PRES   REMARKS
DALTON*        SUNNY     64  54  68 NW8       30.04F
LAWRENCEVILLE* SUNNY     70  50  49 NW8       30.01F
MARIETTA       MOSUNNY   71  55  57 W13       30.02F
KENNESAW*      MOSUNNY   68  52  56 NW8       30.05F
$$

GAZ059>098-102>109-211800-
CENTRAL GEORGIA

CITY           SKY/WX    TMP DP  RH WIND       PRES   REMARKS
AUGUSTA-BUSH   SUNNY     78  46  32 NW9       29.95F
AUGUSTA-DANIEL SUNNY     77  47  34 W7        29.97F
COLUMBUS       SUNNY     74  53  48 N8        30.02F
MACON          SUNNY     75  50  41 NW8       30.00F
ROBINS AFB     SUNNY     75  50  41 NW9       30.00F


CITY           SKY/WX    TMP DP  RH WIND       PRES   REMARKS
LAGRANGE*      SUNNY     75  58  56 NW3       30.04F
SYLVANIA*      SUNNY     79  56  45 NW9       29.97F
MILLEDGEVILLE* SUNNY     73  59  60 CALM      29.99F
$$

GAZ099>101-110>166-211800-
SOUTH GEORGIA

CITY           SKY/WX    TMP DP  RH WIND       PRES   REMARKS
SAVANNAH       SUNNY     77  55  46 W9        29.96F
VALDOSTA       SUNNY     78  56  46 CALM      29.99F
ALMA           SUNNY     77  53  43 N7        29.98F
ST SIMONS      SUNNY     79  57  46 NW6       29.96F
FT STEWART     SUNNY     77  55  47 NW9       29.95F
ALBANY         SUNNY     76  53  44 NW7       30.02F
HUNTER AFB     SUNNY     76  57  51 W8        29.94F
MOODY AFB      SUNNY     77  56  47 VRB3      29.99F
BRUNSWICK      SUNNY     79  55  44 W7        29.97F


CITY           SKY/WX    TMP DP  RH WIND       PRES   REMARKS
BAINBRIDGE*    SUNNY     79  55  44 N6        30.02S
MOULTRIE*      SUNNY     73  55  53 CALM      30.02S
VIDALIA*       SUNNY     75  54  46 NW9       29.99F
WAYCROSS*      SUNNY     80  59  48 N6        29.98F
DOUGLAS*       SUNNY     77  50  38 NW7       30.00F
$$



USA.gov is the U.S. government's official web portal to all federal, state and local government web resources and services.